Gunnison, CO

2:36 PM MDT on May 28, 2017 (GMT -0600)
Gunnison County

Weather History for KGUC - January, 2013

Change the Weather History Date:

Tuesday, January 15, 2013

  Actual Average Record
Temperature  
Mean Temperature -14 °F -  
Max Temperature 3 °F 23 °F 42 °F (2012)
Min Temperature -31 °F 0 °F -31 °F (2013)
Degree Days  
Heating Degree Days 79    
Moisture  
Dew Point -21 °F    
Average Humidity 47    
Maximum Humidity 69    
Minimum Humidity 19    
Precipitation  
Precipitation 0.00 in - - ()
Sea Level Pressure  
Sea Level Pressure 30.23 in    
Wind  
Wind Speed 1 mph (ENE)    
Max Wind Speed 6 mph    
Max Gust Speed -    
Visibility 10 miles    
Events      
Averages and records for this station are not official NWS values.
T = Trace of Precipitation, MM = Missing Value Source: NWS Daily Summary

Daily Weather History Graph

Daily Weather History Graph

Search for Another Location

Airport or City:

Trip Planner

Search our weather history database for the weather conditions in past years. The results will help you decide how hot, cold, wet, or windy it might be!

Date:

Astronomy

Jan. 15, 2013 Rise Set
Actual Time 7:23 AM MST 5:11 PM MST
Civil Twilight 6:54 AM MST 5:40 PM MST
Nautical Twilight 6:22 AM MST 6:12 PM MST
Astronomical Twilight 5:50 AM MST 6:44 PM MST
Moon 9:34 AM MST (1/15) 9:59 PM MST (1/15)
Length of Visible Light 10h 45m
Length of Day
9h 47m
Waxing Crescent, 20% of the Moon is Illuminated
Jan 15
Waxing Crescent
Jan 18
First Quarter
Jan 26
Full
Feb 3
Last Quarter
Feb 10
New

Hourly Weather History & Observations

Time (MST) Temp. Windchill Dew Point Humidity Pressure Visibility Wind Dir Wind Speed Gust Speed Precip Events Conditions
12:15 AM -20.2 °F - - N/A% 30.07 in 9.0 mi Calm Calm - N/A   Clear
12:35 AM -23.8 °F - - N/A% 30.07 in 10.0 mi Calm Calm - N/A   Clear
12:55 AM -20.2 °F - - N/A% 30.08 in 10.0 mi Calm Calm - N/A   Clear
1:15 AM -22.0 °F - -29.2 °F 69% 30.08 in 10.0 mi Calm Calm - N/A   Clear
1:35 AM -23.8 °F - - N/A% 30.09 in 10.0 mi Calm Calm - N/A   Partly Cloudy
1:55 AM -25.6 °F -37.1 °F - N/A% 30.10 in 10.0 mi ENE 3.5 mph - N/A   Partly Cloudy
2:35 AM -25.6 °F - - N/A% 30.11 in 10.0 mi Calm Calm - N/A   Mostly Cloudy
2:55 AM -25.6 °F - - N/A% 30.12 in 10.0 mi Calm Calm - N/A   Overcast
4:35 AM -25.6 °F - - N/A% 30.13 in 10.0 mi Calm Calm - N/A   Clear
4:55 AM -27.4 °F - - N/A% 30.13 in 10.0 mi Calm Calm - N/A   Clear
5:15 AM -27.4 °F - - N/A% 30.14 in 10.0 mi Calm Calm - N/A   Clear
5:35 AM -27.4 °F - - N/A% 30.15 in 10.0 mi Calm Calm - N/A   Clear
5:55 AM -27.4 °F - - N/A% 30.15 in 10.0 mi Calm Calm - N/A   Clear
6:15 AM -29.2 °F - - N/A% 30.16 in 10.0 mi Calm Calm - N/A   Clear
6:35 AM -27.4 °F - - N/A% 30.17 in 10.0 mi Calm Calm - N/A   Clear
6:55 AM -29.2 °F - - N/A% 30.17 in 9.0 mi Calm Calm - N/A   Clear
7:15 AM -31.0 °F - - N/A% 30.17 in 10.0 mi Calm Calm - N/A   Clear
7:35 AM -29.2 °F - - N/A% 30.19 in 10.0 mi Calm Calm - N/A   Clear
7:55 AM -29.2 °F - - N/A% 30.20 in 10.0 mi Calm Calm - N/A   Clear
8:15 AM -27.4 °F - - N/A% 30.22 in 10.0 mi Calm Calm - N/A   Clear
8:35 AM -27.4 °F - - N/A% 30.24 in 3.0 mi Calm Calm - N/A   Clear
8:55 AM -25.6 °F - - N/A% 30.24 in 5.0 mi Calm Calm - N/A   Mostly Cloudy
9:15 AM -23.8 °F - - N/A% 30.24 in 9.0 mi Calm Calm - N/A   Overcast
9:35 AM -23.8 °F - - N/A% 30.25 in 5.0 mi Calm Calm - N/A   Mostly Cloudy
9:55 AM -20.2 °F - - N/A% 30.26 in 8.0 mi Calm Calm - N/A   Partly Cloudy
10:55 AM -14.8 °F - - N/A% 30.25 in 10.0 mi Calm Calm - N/A   Clear
11:15 AM -13.0 °F - - N/A% 30.24 in 10.0 mi Calm Calm - N/A   Clear
11:35 AM -11.2 °F - -27.4 °F 45% 30.23 in 10.0 mi Calm Calm - N/A   Clear
11:55 AM -9.4 °F - -22.0 °F 54% 30.22 in 10.0 mi Calm Calm - N/A   Clear
12:35 PM -5.8 °F -16.7 °F -23.8 °F 42% 30.21 in 10.0 mi East 4.6 mph - N/A   Clear
12:55 PM -5.8 °F -14.5 °F -20.2 °F 50% 30.21 in 10.0 mi East 3.5 mph - N/A   Clear
1:35 PM -0.4 °F -8.3 °F -14.8 °F 51% 30.21 in 10.0 mi East 3.5 mph - N/A   Clear
1:55 PM -0.4 °F -8.3 °F -13.0 °F 55% 30.21 in 10.0 mi East 3.5 mph - N/A   Clear
2:15 PM 1.4 °F - -14.8 °F 47% 30.21 in 10.0 mi Calm Calm - N/A   Clear
3:15 PM 3.2 °F -6.2 °F -16.6 °F 39% 30.23 in 10.0 mi East 4.6 mph - N/A   Clear
3:35 PM 3.2 °F -7.8 °F - N/A% 30.23 in 10.0 mi East 5.8 mph - N/A   Clear
3:55 PM 3.2 °F -7.8 °F -31.0 °F 19% 30.24 in 10.0 mi North 5.8 mph - N/A   Clear
4:35 PM 3.2 °F -7.8 °F -29.2 °F 21% 30.24 in 10.0 mi North 5.8 mph - N/A   Clear
4:55 PM 3.2 °F -4.2 °F -27.4 °F 23% 30.24 in 10.0 mi North 3.5 mph - N/A   Clear
5:15 PM 3.2 °F -6.2 °F -23.8 °F 28% 30.25 in 10.0 mi North 4.6 mph - N/A   Clear
5:35 PM 1.4 °F - -23.8 °F 30% 30.25 in 10.0 mi North - - N/A   Clear
5:55 PM -0.4 °F - -23.8 °F 32% 30.26 in 10.0 mi Calm Calm - N/A   Clear
6:15 PM -0.4 °F - -18.4 °F 43% 30.26 in 10.0 mi Calm Calm - N/A   Clear
6:35 PM -2.2 °F - -18.4 °F 46% 30.27 in 10.0 mi Calm Calm - N/A   Clear
6:55 PM -2.2 °F - -16.6 °F 50% 30.28 in 10.0 mi Calm Calm - N/A   Mostly Cloudy
7:15 PM -4.0 °F -12.4 °F -18.4 °F 50% 30.29 in 10.0 mi South 3.5 mph - N/A   Overcast
7:35 PM -4.0 °F - -14.8 °F 60% 30.30 in 10.0 mi Calm Calm - N/A   Overcast
7:55 PM -5.8 °F -14.5 °F -18.4 °F 55% 30.30 in 10.0 mi SW 3.5 mph - N/A   Mostly Cloudy
8:15 PM -2.2 °F - -13.0 °F 60% 30.31 in 10.0 mi Calm Calm - N/A   Overcast
8:35 PM -5.8 °F - -20.2 °F 50% 30.31 in 10.0 mi Calm Calm - N/A   Scattered Clouds
8:55 PM -5.8 °F - -18.4 °F 55% 30.32 in 10.0 mi Calm Calm - N/A   Clear
9:15 PM -5.8 °F - -22.0 °F 46% 30.33 in 10.0 mi Calm Calm - N/A   Clear
9:35 PM -7.6 °F - -20.2 °F 54% 30.32 in 10.0 mi Calm Calm - N/A   Clear
9:55 PM -7.6 °F - -22.0 °F 50% 30.33 in 10.0 mi Calm Calm - N/A   Clear
10:15 PM -5.8 °F - -16.6 °F 60% 30.35 in 10.0 mi Calm Calm - N/A   Clear
10:35 PM -9.4 °F - -23.8 °F 49% 30.36 in 10.0 mi Calm Calm - N/A   Clear
11:15 PM -9.4 °F - -20.2 °F 59% 30.37 in 10.0 mi Calm Calm - N/A   Clear
11:35 PM -13.0 °F - - N/A% 30.38 in 10.0 mi Calm Calm - N/A   Clear
11:55 PM -13.0 °F - -23.8 °F 59% 30.39 in 10.0 mi Calm Calm - N/A   Clear